Airfield :
LOGIN :

Register | Disclaimer

   EN    FR    IT 

 










Legend :    VFR   Marginal VFR   IFR   Intensive IFR   Very Intensive IFR
Visi :
Ceiling :
>= 8 km
>= 3000ft
5 to 8 km
1000 to 3000 ft
1500m to 5 km
500 to 1000 ft
800 to 1500m
200 to 500 ft
< 800m
< 200 ft
Symbols :   Thunderstorms  Fog  Heavy snow  Heavy precipitations  Wind > 20 kt
SIGMETs :     Misc.  Thunderstorms  Icing  Turbulence  Mountain Waves  Volcanic Ashes







- Airport Elevation : 30 ft
- IATA code : CFN


EIDL - Donegal

CURRENT METAR :
  • 171200Z 20019KT CAVOK 09/03 Q0998

EXPIRED METARs :
  • 171100Z 18016KT CAVOK 08/05 Q0998
  • 171030Z 19015KT 9999 -RA FEW032 SCT038 OVC044 07/04 Q0997
  • 171000Z 20016G26KT 9999 -RA FEW030 BKN038 OVC045 07/04 Q0997

TAF TAF EIDL
Valid from the 17 at 12:00 until the 17 at 21:00 UTC


171100Z 1712/1721 18015KT 9999 FEW025
TEMPO 1712/1721 19020G32KT -SHRA SCT018CB
No reported NOTAMs for that airfield.



MET'MAP, your aeronautical weather chart ! - Copyright ORBIFLY December 2007 - Disclaimer

ORBIFLY MET'MAP TEAM :

Programming & Development : Alexandra Zaïnal
Concept & Development : Baudouin d'Aumeries
Co-Development & Prog : Marc-Olivier Méhu
Technical & hardware support : Manuel Goepfert

Contact : metmap@orbifly.com




SOURCES & CREDITS :

   NOAA